ARIANE 5 R/B (53766 NORAD) Tracking and Keplerian Element Data

This shows tracking and keplerian element data for the satellite.

Feedback or suggestion? Click here.




ElementValue
Catalog53766
NameARIANE 5 R/B
Epoch Orbit24
Epoch Day269.55330117
Epoch Year2022
RAAN146.8573
Inclination3.2913
Eccentricity0.8153638
Argument of Perigee177.0373
Mean Anonmoly196.9405
Mean Motion1.2638422
Decay Rate6.49E-06
L11 53766U 22110B 22269.55330117 .00000649 00000+0 99870-3 0 9993
L22 53766 3.2913 146.8573 8153638 177.0373 196.9405 1.26384220 241



Live tracking and technical data element details for ARIANE 5 R/B (NORAD 53766). ARIANE 5 R/B can be tracked NOW for your location showing map with azimuth and elevation plus other details from your city location.







IsCatalogInMostPopularTable: catalog: 53766, numindb: -1

Insert: records affected: 1


GetName: 53766 ARIANE 5 R/B

Hit Count: inserted at: Thu, 08 Dec 2022 08:33:40 GMT